period_start,C,m1,H,J0,J1,J2,J3,J4,J5,JA,JB,JC,JD,JJ,JK,JN,#
2017-10-01 00:04:11,0.00,0.14,0.00,21.49,26.40,29.53,14.01,45.47,1021.90,2035.99,3434.97,3088.03,3486.99,600.07,602.10,26.41,0000 0000 0000 0000 000000
2017-10-01 00:09:12,0.00,0.14,0.00,21.55,26.40,29.51,14.07,45.64,1021.81,2035.99,3434.98,3088.01,3486.99,599.46,601.34,26.46,0000 0000 0000 0000 000000
2017-10-01 00:14:13,-0.00,0.14,0.00,21.51,26.40,29.53,14.08,45.71,1021.76,2035.99,3434.91,3088.01,3486.99,598.81,601.07,26.51,0000 0000 0000 0000 000000
2017-10-01 00:19:15,-0.00,0.14,0.00,21.51,26.40,29.53,14.00,45.67,1021.84,2035.99,3434.93,3088.03,3486.99,598.80,601.01,26.57,0000 0000 0000 0000 000000
2017-10-01 00:24:16,0.00,0.14,0.00,21.54,26.40,29.52,14.09,45.63,1021.81,2035.99,3434.96,3088.05,3486.99,600.41,602.56,26.62,0000 0000 0000 0000 000000
2017-10-01 00:29:17,0.00,0.14,0.00,21.52,26.40,29.51,14.19,46.17,1021.73,2035.98,3434.85,3088.03,3486.93,600.45,602.49,26.67,0000 0000 0000 0000 000000
2017-10-01 00:34:19,0.00,0.14,0.00,21.54,26.40,29.54,14.07,46.08,1021.80,2035.98,3434.58,3088.02,3486.88,599.76,601.75,26.72,0000 0000 0000 0000 000000
2017-10-01 00:39:20,0.01,0.14,0.00,21.50,26.40,29.52,14.08,46.09,1021.77,2035.98,3434.22,3088.00,3486.81,599.98,602.11,26.77,0000 0000 0000 0000 000000
2017-10-01 00:44:21,0.00,0.14,0.00,21.47,26.40,29.52,14.16,46.23,1021.86,2035.98,3434.06,3088.01,3486.63,600.25,602.47,26.82,0000 0000 0000 0000 000000
2017-10-01 00:49:22,0.00,0.14,0.00,21.51,26.40,29.51,14.08,45.55,1021.88,2035.99,3434.01,3088.00,3486.51,600.35,602.47,26.87,0000 0000 0000 0000 000000
2017-10-01 00:54:24,0.00,0.14,0.00,21.52,26.40,29.52,14.17,46.08,1021.76,2035.99,3434.01,3088.00,3486.27,600.04,602.11,26.92,0000 0000 0000 0000 000000
2017-10-01 00:59:25,0.00,0.14,0.00,21.50,26.40,29.52,14.11,46.11,1021.63,2035.99,3434.01,3088.00,3486.13,599.56,601.66,26.97,0000 0000 0000 0000 000000
2017-10-01 01:04:26,0.00,0.14,0.00,21.58,26.40,29.52,14.27,46.32,1021.71,2035.98,3434.01,3088.00,3486.06,600.26,602.11,27.02,0000 0000 0000 0000 000000
2017-10-01 01:09:27,0.00,0.14,0.00,21.58,26.40,29.51,14.12,45.97,1021.70,2035.97,3434.00,3088.00,3486.01,599.98,601.91,27.07,0000 0000 0000 0000 000000
2017-10-01 01:14:29,-0.00,0.14,0.00,21.55,26.40,29.52,14.24,46.13,1021.68,2035.98,3434.00,3088.00,3486.01,600.56,602.37,27.12,0000 0000 0000 0000 000000
2017-10-01 01:19:30,0.00,0.14,0.00,21.59,26.40,29.52,14.03,45.50,1021.86,2035.98,3434.00,3088.00,3486.00,599.43,601.46,27.17,0000 0000 0000 0000 000000
2017-10-01 01:24:31,0.00,0.14,0.00,21.59,26.40,29.53,14.26,46.21,1021.91,2035.98,3433.98,3088.00,3486.00,600.67,602.67,27.22,0000 0000 0000 0000 000000
2017-10-01 01:29:32,0.00,0.14,0.00,21.55,26.40,29.54,14.20,45.77,1021.84,2035.97,3433.97,3088.00,3486.00,599.78,601.96,27.27,0000 0000 0000 0000 000000
2017-10-01 01:34:34,0.00,0.15,0.00,21.57,26.40,29.53,14.09,45.57,1021.71,2035.98,3433.84,3087.99,3485.99,599.45,601.31,27.32,0000 0000 0000 0000 000000
2017-10-01 01:39:35,0.00,0.15,0.00,21.56,26.42,29.52,14.09,45.79,1021.65,2035.98,3433.74,3087.99,3485.98,600.21,602.18,27.37,0000 0000 0000 0000 000000
2017-10-01 01:44:36,0.00,0.15,0.00,21.56,26.42,29.54,14.22,45.88,1021.77,2035.97,3433.39,3087.98,3485.96,600.11,602.15,27.42,0000 0000 0000 0000 000000
2017-10-01 01:49:38,0.00,0.15,0.00,21.59,26.42,29.54,14.16,45.79,1021.76,2035.98,3433.07,3087.99,3485.91,599.73,601.76,27.47,0000 0000 0000 0000 000000
2017-10-01 01:54:39,0.00,0.15,0.00,21.57,26.42,29.55,14.15,45.82,1021.65,2035.98,3433.02,3087.98,3485.72,600.33,602.36,27.52,0000 0000 0000 0000 000000
2017-10-01 01:59:40,-0.00,0.15,0.00,21.57,26.42,29.55,14.11,45.58,1021.72,2035.98,3433.01,3087.98,3485.60,599.63,601.56,27.57,0000 0000 0000 0000 000000
2017-10-01 02:04:42,0.00,0.15,0.00,21.62,26.42,29.54,14.16,45.55,1021.60,2035.95,3433.00,3087.98,3485.28,599.90,601.70,27.62,0000 0000 0000 0000 000000
2017-10-01 02:09:43,0.01,0.15,0.00,21.59,26.42,29.55,14.08,45.57,1021.60,2035.96,3432.98,3087.87,3485.06,599.33,601.22,27.67,0000 0000 0000 0000 000000
2017-10-01 02:14:44,-0.00,0.15,0.00,21.62,26.42,29.57,14.13,45.77,1021.62,2035.97,3432.96,3087.80,3485.01,600.69,602.66,27.72,0000 0000 0000 0000 000000
2017-10-01 02:19:45,0.00,0.15,0.00,21.65,26.43,29.54,14.10,45.61,1021.55,2035.98,3432.91,3087.82,3485.01,600.46,602.02,27.77,0000 0000 0000 0000 000000
2017-10-01 02:24:47,0.02,0.15,0.00,21.62,26.44,29.55,14.14,45.81,1021.53,2035.93,3432.44,3087.37,3485.00,599.35,600.91,27.82,0000 0000 0000 0000 000000
2017-10-01 02:29:48,0.00,0.15,0.00,21.64,26.44,29.55,14.08,45.69,1021.53,2035.90,3432.05,3087.14,3484.98,600.24,601.85,27.87,0000 0000 0000 0000 000000
2017-10-01 02:34:49,0.00,0.15,0.00,21.65,26.45,29.56,14.12,45.47,1021.54,2035.91,3432.04,3087.18,3484.96,600.33,601.88,27.92,0000 0000 0000 0000 000000
2017-10-01 02:39:50,0.00,0.15,0.00,21.65,26.45,29.56,14.04,45.78,1021.53,2035.89,3432.00,3087.04,3484.80,600.29,601.81,27.97,0000 0000 0000 0000 000000
2017-10-01 02:44:51,-0.00,0.15,0.00,21.68,26.45,29.56,14.00,45.30,1021.51,2035.83,3431.99,3087.01,3484.27,599.75,601.21,28.02,0000 0000 0000 0000 000000
2017-10-01 02:49:53,-0.00,0.15,0.00,21.63,26.45,29.56,14.04,45.52,1021.54,2035.64,3431.95,3087.00,3484.05,599.57,601.34,28.07,0000 0000 0000 0000 000000
2017-10-01 02:54:54,-0.01,0.15,0.00,21.64,26.45,29.57,14.16,45.73,1021.52,2035.60,3431.88,3087.00,3484.02,600.47,602.13,28.12,0000 0000 0000 0000 000000
2017-10-01 02:59:55,-0.01,0.15,0.00,21.64,26.45,29.58,14.10,45.49,1021.52,2035.39,3431.87,3087.00,3484.00,600.40,602.00,28.17,0000 0000 0000 0000 000000
2017-10-01 03:04:57,-0.02,0.15,0.00,21.62,26.45,29.57,14.12,45.96,1021.52,2035.28,3431.43,3087.00,3484.00,600.02,601.78,28.22,0000 0000 0000 0000 000000
2017-10-01 03:09:58,0.01,0.15,0.00,21.69,26.45,29.57,14.23,46.10,1021.53,2035.28,3431.10,3087.00,3484.00,600.67,601.98,28.27,0000 0000 0000 0000 000000
2017-10-01 03:14:59,-0.01,0.15,0.00,21.69,26.47,29.58,14.17,45.94,1021.51,2035.20,3431.02,3086.99,3483.99,600.48,602.02,28.32,0000 0000 0000 0000 000000
2017-10-01 03:20:00,-0.01,0.15,0.00,21.67,26.47,29.58,14.02,45.71,1021.50,2035.12,3431.01,3086.99,3483.96,599.78,601.44,28.37,0000 0000 0000 0000 000000
2017-10-01 03:25:02,-0.00,0.15,0.00,21.69,26.47,29.59,14.12,45.90,1021.50,2035.07,3430.99,3086.98,3483.83,600.59,601.96,28.42,0000 0000 0000 0000 000000
2017-10-01 03:30:03,0.01,0.15,0.00,21.68,26.47,29.60,14.13,45.98,1021.50,2035.06,3430.96,3086.95,3483.42,600.07,601.66,28.47,0000 0000 0000 0000 000000
2017-10-01 03:35:05,0.02,0.15,0.00,21.68,26.47,29.58,14.08,45.63,1021.50,2035.11,3430.58,3086.87,3483.22,599.43,601.00,28.52,0000 0000 0000 0000 000000
2017-10-01 03:40:06,0.01,0.15,0.00,21.70,26.47,29.60,14.21,45.58,1021.50,2035.31,3430.36,3086.87,3483.10,599.89,601.38,28.57,0000 0000 0000 0000 000000
2017-10-01 03:45:07,-0.01,0.15,0.00,21.65,26.49,29.60,14.14,45.81,1021.50,2035.06,3430.11,3086.56,3483.00,600.41,602.19,28.62,0000 0000 0000 0000 000000
2017-10-01 03:50:09,0.00,0.15,0.00,21.67,26.49,29.60,14.20,45.99,1021.50,2035.06,3430.01,3086.41,3483.00,600.52,601.94,28.67,0000 0000 0000 0000 000000
2017-10-01 03:55:10,0.00,0.15,0.00,21.69,26.50,29.60,14.13,45.68,1021.50,2035.04,3430.00,3086.22,3483.00,599.98,601.63,28.72,0000 0000 0000 0000 000000
2017-10-01 04:00:11,0.00,0.15,0.00,21.67,26.50,29.63,14.12,45.94,1021.50,2035.05,3429.96,3086.06,3482.98,600.84,602.20,28.77,0000 0000 0000 0000 000000
2017-10-01 04:05:12,0.00,0.15,0.00,21.71,26.50,29.62,14.08,45.53,1021.49,2035.07,3429.83,3086.02,3482.93,599.72,601.32,28.82,0000 0000 0000 0000 000000
2017-10-01 04:10:14,0.02,0.15,0.00,21.70,26.50,29.62,14.08,45.61,1021.48,2035.03,3429.19,3086.00,3482.51,599.73,601.14,28.87,0000 0000 0000 0000 000000
2017-10-01 04:15:15,0.01,0.15,0.00,21.69,26.51,29.64,14.15,45.93,1021.48,2035.05,3429.09,3086.00,3482.20,599.85,601.56,28.93,0000 0000 0000 0000 000000
2017-10-01 04:20:16,0.00,0.15,0.00,21.72,26.52,29.63,14.17,46.00,1021.48,2035.03,3429.00,3085.99,3482.03,599.80,601.32,28.98,0000 0000 0000 0000 000000
2017-10-01 04:25:18,0.00,0.15,0.00,21.70,26.52,29.63,14.05,45.63,1021.49,2035.06,3429.00,3086.00,3482.03,599.39,600.89,29.03,0000 0000 0000 0000 000000
2017-10-01 04:30:18,-0.00,0.15,0.00,21.69,26.52,29.64,14.10,45.59,1021.49,2035.04,3428.99,3086.00,3482.00,600.22,601.62,29.08,0000 0000 0000 0000 000000
2017-10-01 04:35:20,0.00,0.15,0.00,21.71,26.52,29.63,14.17,45.86,1021.49,2035.01,3428.93,3085.97,3481.99,600.61,602.05,29.13,0000 0000 0000 0000 000000
2017-10-01 04:40:21,0.01,0.15,0.00,21.69,26.52,29.64,14.20,46.13,1021.50,2035.02,3428.52,3085.96,3481.97,601.79,603.44,29.18,0000 0000 0000 0000 000000
2017-10-01 04:45:22,0.02,0.15,0.00,21.72,26.52,29.64,13.95,45.41,1021.50,2035.00,3428.12,3085.69,3481.55,599.85,601.36,29.23,0000 0000 0000 0000 000000
2017-10-01 04:50:23,0.02,0.15,0.00,21.75,26.53,29.66,14.07,45.74,1021.50,2035.02,3427.60,3085.07,3481.04,599.17,600.73,29.28,0000 0000 0000 0000 000000
2017-10-01 04:55:24,0.01,0.15,0.00,21.74,26.54,29.65,14.08,45.72,1021.50,2035.01,3427.10,3085.00,3481.00,600.13,601.50,29.33,0000 0000 0000 0000 000000
2017-10-01 05:00:25,-0.00,0.15,0.00,21.74,26.55,29.66,14.03,45.57,1021.50,2035.00,3427.03,3085.00,3480.98,599.72,601.03,29.38,0000 0000 0000 0000 000000
2017-10-01 05:05:26,0.00,0.15,0.00,21.74,26.55,29.67,14.07,45.71,1021.50,2035.00,3427.00,3085.00,3480.95,599.62,601.12,29.43,0000 0000 0000 0000 000000
2017-10-01 05:10:28,0.00,0.15,0.00,21.72,26.55,29.67,14.34,46.53,1021.50,2035.00,3426.96,3085.00,3480.69,600.63,602.39,29.48,0000 0000 0000 0000 000000
2017-10-01 05:15:29,0.01,0.15,0.00,21.74,26.55,29.67,14.22,46.11,1021.50,2035.00,3426.85,3084.98,3480.09,600.24,601.89,29.53,0000 0000 0000 0000 000000
2017-10-01 05:20:30,0.01,0.15,0.00,21.75,26.55,29.68,14.12,45.82,1021.50,2035.00,3426.52,3084.95,3480.03,599.85,601.18,29.58,0000 0000 0000 0000 000000
2017-10-01 05:25:31,0.00,0.16,0.00,21.77,26.55,29.67,14.07,45.61,1021.50,2035.00,3426.25,3084.91,3480.00,599.73,601.00,29.63,0000 0000 0000 0000 000000
2017-10-01 05:30:33,0.00,0.16,0.00,21.81,26.56,29.68,14.21,46.27,1021.50,2035.00,3426.05,3084.87,3480.00,600.24,601.83,29.68,0000 0000 0000 0000 000000
2017-10-01 05:35:34,0.00,0.16,0.00,21.77,26.57,29.67,14.05,45.53,1021.50,2035.00,3426.01,3084.63,3480.00,599.93,601.45,29.73,0000 0000 0000 0000 000000
2017-10-01 05:40:35,0.01,0.16,0.00,21.78,26.57,29.68,14.09,45.78,1021.50,2035.00,3425.99,3084.19,3479.98,600.01,601.39,29.78,0000 0000 0000 0000 000000
2017-10-01 05:45:36,0.00,0.16,0.00,21.80,26.57,29.69,14.05,46.08,1021.50,2035.00,3425.95,3084.05,3479.95,599.33,600.77,29.83,0000 0000 0000 0000 000000
2017-10-01 05:50:38,0.01,0.16,0.00,21.78,26.57,29.69,14.25,46.31,1021.50,2035.00,3425.52,3084.02,3479.56,600.64,601.94,29.88,0000 0000 0000 0000 000000
2017-10-01 05:55:39,0.01,0.16,0.00,21.79,26.57,29.69,14.21,45.94,1021.50,2035.00,3425.13,3084.00,3479.17,600.39,601.55,29.93,0000 0000 0000 0000 000000
2017-10-01 06:00:40,0.00,0.16,0.00,21.77,26.57,29.71,13.96,45.38,1021.49,2034.99,3425.02,3084.00,3479.02,599.15,600.69,29.98,0000 0000 0000 0000 000000
2017-10-01 06:05:41,0.00,0.16,0.00,21.77,26.57,29.71,13.97,45.33,1021.50,2034.99,3424.95,3083.99,3479.00,600.10,601.56,30.03,0000 0000 0000 0000 000000
2017-10-01 06:10:42,0.00,0.16,0.00,21.80,26.57,29.71,14.05,45.38,1021.50,2034.98,3424.72,3083.97,3478.97,599.35,600.79,30.08,0000 0000 0000 0000 000000
2017-10-01 06:15:43,0.04,0.16,0.00,21.76,26.58,29.72,14.18,45.88,1021.48,2034.99,3424.04,3083.39,3478.46,600.17,601.64,30.13,0000 0000 0000 0000 000000
2017-10-01 06:20:45,0.01,0.16,0.00,21.73,26.59,29.72,14.19,45.85,1021.45,2034.98,3423.75,3083.07,3478.05,600.37,601.74,30.18,0000 0000 0000 0000 000000
2017-10-01 06:25:46,0.01,0.16,0.00,21.75,26.60,29.73,14.21,45.96,1021.47,2034.96,3423.12,3083.00,3478.00,600.21,601.70,30.23,0000 0000 0000 0000 000000
2017-10-01 06:30:47,-0.00,0.16,0.00,21.74,26.60,29.71,14.14,45.89,1021.49,2034.96,3423.04,3083.00,3477.99,600.21,601.59,30.28,0000 0000 0000 0000 000000
2017-10-01 06:35:48,0.00,0.16,0.00,21.76,26.60,29.73,14.25,46.08,1021.48,2034.96,3423.00,3083.00,3477.97,600.58,601.88,30.33,0000 0000 0000 0000 000000
2017-10-01 06:40:50,-0.00,0.16,0.00,21.79,26.60,29.73,14.05,45.67,1021.49,2034.96,3422.98,3083.00,3477.96,600.05,601.20,30.38,0000 0000 0000 0000 000000
2017-10-01 06:45:51,0.00,0.16,0.00,21.76,26.60,29.72,14.08,45.41,1021.49,2034.95,3422.84,3083.00,3477.63,599.70,601.25,30.43,0000 0000 0000 0000 000000
2017-10-01 06:50:52,0.02,0.16,0.00,21.79,26.60,29.72,14.14,45.75,1021.50,2034.97,3422.41,3082.96,3477.20,600.11,601.52,30.48,0000 0000 0000 0000 000000
2017-10-01 06:55:54,-0.00,0.16,0.00,21.77,26.60,29.74,14.13,45.81,1021.50,2034.91,3422.11,3082.97,3477.03,599.80,601.19,30.53,0000 0000 0000 0000 000000
2017-10-01 07:00:55,0.01,0.16,0.00,21.75,26.60,29.73,14.08,45.83,1021.50,2034.93,3422.02,3082.89,3477.00,599.95,601.30,30.58,0000 0000 0000 0000 000000
2017-10-01 07:05:56,-0.00,0.16,0.00,21.77,26.60,29.73,14.21,46.05,1021.50,2034.91,3422.00,3082.67,3477.00,600.52,602.13,30.63,0000 0000 0000 0000 000000
2017-10-01 07:10:57,-0.00,0.16,0.00,21.77,26.60,29.74,14.08,45.43,1021.50,2034.84,3421.98,3082.42,3476.99,599.54,600.92,30.68,0000 0000 0000 0000 000000
2017-10-01 07:15:58,0.01,0.16,0.00,21.73,26.61,29.75,14.19,45.64,1021.50,2034.87,3421.92,3082.20,3476.97,600.28,601.77,30.73,0000 0000 0000 0000 000000
2017-10-01 07:21:00,0.02,0.16,0.00,21.76,26.61,29.74,14.13,45.57,1021.50,2034.87,3421.53,3082.04,3476.93,599.76,601.49,30.78,0000 0000 0000 0000 000000
2017-10-01 07:26:01,0.01,0.16,0.00,21.73,26.62,29.74,14.20,45.84,1021.50,2034.85,3421.10,3082.01,3476.52,600.38,602.04,30.83,0000 0000 0000 0000 000000
2017-10-01 07:31:03,0.00,0.17,0.00,21.72,26.62,29.75,14.05,45.55,1021.49,2034.80,3421.00,3082.00,3476.09,599.55,600.96,30.88,0000 0000 0000 0000 000000
2017-10-01 07:36:04,0.00,0.17,0.00,21.74,26.62,29.75,14.10,45.54,1021.49,2034.84,3420.98,3082.00,3476.02,599.22,600.83,30.93,0000 0000 0000 0000 000000
2017-10-01 07:41:05,0.00,0.17,0.00,21.71,26.62,29.74,14.10,45.83,1021.50,2034.90,3420.94,3081.99,3476.00,600.33,601.95,30.98,0000 0000 0000 0000 000000
2017-10-01 07:46:06,-0.00,0.17,0.00,21.71,26.62,29.75,13.95,45.49,1021.50,2034.90,3420.91,3081.99,3476.00,599.42,600.93,31.03,0000 0000 0000 0000 000000
2017-10-01 07:51:08,0.00,0.17,0.00,21.76,26.62,29.75,14.09,45.59,1021.49,2034.78,3420.53,3081.97,3476.00,600.07,601.48,31.08,0000 0000 0000 0000 000000
2017-10-01 07:56:09,-0.01,0.17,0.00,21.72,26.62,29.75,14.20,45.95,1021.43,2034.77,3420.13,3081.98,3475.97,599.77,601.24,31.13,0000 0000 0000 0000 000000
2017-10-01 08:01:10,-0.00,0.17,0.00,21.71,26.62,29.75,14.10,45.83,1021.38,2034.74,3420.04,3081.93,3475.85,600.08,601.56,31.18,0000 0000 0000 0000 000000
2017-10-01 08:06:11,0.01,0.17,0.00,21.76,26.61,29.75,14.03,45.52,1021.35,2034.65,3420.00,3081.78,3475.60,599.34,600.54,31.23,0000 0000 0000 0000 000000
2017-10-01 08:11:12,0.01,0.17,0.00,21.71,26.62,29.77,14.19,45.57,1021.38,2034.70,3419.98,3081.49,3475.16,600.11,601.44,31.28,0000 0000 0000 0000 000000
2017-10-01 08:16:13,0.00,0.17,0.00,21.70,26.61,29.75,14.17,45.92,1021.42,2034.65,3419.93,3081.40,3475.03,600.32,601.78,31.33,0000 0000 0000 0000 000000
2017-10-01 08:21:14,0.03,0.17,0.00,21.72,26.61,29.73,14.06,45.79,1021.42,2034.78,3419.49,3081.12,3475.01,600.17,601.57,31.38,0000 0000 0000 0000 000000
2017-10-01 08:26:16,-0.00,0.17,0.00,21.68,26.60,29.75,14.19,45.98,1021.47,2034.79,3419.11,3081.07,3475.00,600.20,601.77,31.43,0000 0000 0000 0000 000000
2017-10-01 08:31:17,-0.01,0.17,0.00,21.68,26.60,29.76,14.24,45.99,1021.47,2034.64,3419.00,3081.01,3474.99,600.61,601.93,31.48,0000 0000 0000 0000 000000
2017-10-01 08:36:18,0.02,0.17,0.00,21.70,26.60,29.74,14.12,45.88,1021.48,2034.83,3418.97,3081.00,3474.99,599.33,601.23,31.53,0000 0000 0000 0000 000000
2017-10-01 08:41:19,0.00,0.17,0.00,21.67,26.60,29.74,14.08,45.87,1021.50,2034.90,3418.95,3081.00,3474.97,600.12,601.53,31.59,0000 0000 0000 0000 000000
2017-10-01 08:46:21,0.00,0.17,0.00,21.69,26.60,29.73,14.03,45.77,1021.50,2034.93,3418.92,3081.00,3474.92,600.04,601.43,31.64,0000 0000 0000 0000 000000
2017-10-01 08:51:23,0.00,0.17,0.00,21.69,26.60,29.73,14.13,46.11,1021.50,2034.86,3418.64,3081.00,3474.47,599.93,601.54,31.69,0000 0000 0000 0000 000000
2017-10-01 08:56:24,0.01,0.17,0.00,21.68,26.60,29.73,14.13,45.99,1021.50,2034.93,3418.22,3081.00,3474.38,599.64,601.14,31.74,0000 0000 0000 0000 000000
2017-10-01 09:01:25,-0.00,0.17,0.00,21.68,26.60,29.75,14.09,45.44,1021.49,2034.97,3418.05,3081.00,3474.33,599.61,601.32,31.79,0000 0000 0000 0000 000000
2017-10-01 09:06:26,0.00,0.17,0.00,21.67,26.60,29.73,14.12,45.81,1021.48,2034.98,3418.02,3080.99,3474.10,599.33,601.00,31.84,0000 0000 0000 0000 000000
2017-10-01 09:11:28,0.00,0.17,0.00,21.65,26.60,29.74,14.20,45.86,1021.50,2034.95,3417.99,3080.97,3474.01,600.33,601.96,31.89,0000 0000 0000 0000 000000
2017-10-01 09:16:29,-0.00,0.17,0.00,21.67,26.60,29.75,14.03,45.60,1021.50,2034.95,3417.99,3080.95,3474.00,599.17,600.87,31.94,0000 0000 0000 0000 000000
2017-10-01 09:21:30,0.01,0.17,0.00,21.61,26.60,29.76,14.01,45.58,1021.50,2034.94,3417.83,3080.75,3473.99,600.07,601.68,31.99,0000 0000 0000 0000 000000
2017-10-01 09:26:31,-0.02,0.17,0.00,21.57,26.60,29.73,14.03,45.76,1021.50,2034.82,3417.74,3080.59,3473.96,600.04,601.85,32.04,0000 0000 0000 0000 000000
2017-10-01 09:31:33,0.03,0.17,0.00,21.60,26.59,29.76,14.10,45.49,1021.50,2034.76,3417.21,3080.22,3473.83,600.27,601.90,32.09,0000 0000 0000 0000 000000
2017-10-01 09:36:34,0.01,0.17,0.00,21.56,26.58,29.75,14.26,46.04,1021.49,2034.73,3417.02,3080.08,3473.40,600.01,601.77,32.14,0000 0000 0000 0000 000000
2017-10-01 09:41:35,0.01,0.17,0.00,21.59,26.57,29.74,14.23,45.89,1021.50,2034.88,3417.00,3080.06,3473.34,600.76,602.55,32.19,0000 0000 0000 0000 000000
2017-10-01 09:46:36,0.01,0.17,0.00,21.60,26.57,29.75,14.12,45.82,1021.50,2034.97,3416.99,3080.01,3473.18,600.38,602.06,32.24,0000 0000 0000 0000 000000
2017-10-01 09:51:38,0.00,0.17,0.00,21.57,26.57,29.72,14.23,45.93,1021.47,2034.94,3416.96,3080.00,3473.03,600.78,602.66,32.29,0000 0000 0000 0000 000000
2017-10-01 09:56:39,0.00,0.17,0.00,21.63,26.57,29.72,14.25,46.17,1021.46,2034.93,3416.63,3080.00,3473.00,600.17,602.18,32.34,0000 0000 0000 0000 000000
2017-10-01 10:01:40,0.01,0.17,0.00,21.65,26.57,29.72,14.18,45.72,1021.45,2034.98,3416.53,3080.00,3473.00,600.31,602.14,32.39,0000 0000 0000 0000 000000
2017-10-01 10:06:41,0.00,0.17,0.00,21.60,26.57,29.70,14.09,45.67,1021.35,2034.97,3416.09,3080.00,3473.00,599.67,601.17,32.44,0000 0000 0000 0000 000000
2017-10-01 10:11:42,0.00,0.17,0.00,21.61,26.57,29.71,14.22,46.17,1021.11,2034.96,3416.02,3079.99,3473.00,600.69,602.07,32.49,0000 0000 0000 0000 000000
2017-10-01 10:16:43,0.00,0.17,0.00,21.60,26.57,29.69,14.10,45.99,1021.16,2034.95,3416.01,3079.99,3472.99,600.18,601.71,32.54,0000 0000 0000 0000 000000
2017-10-01 10:21:44,-0.00,0.17,0.00,21.56,26.56,29.70,14.08,46.13,1021.22,2034.93,3416.00,3079.99,3472.98,599.49,601.15,32.59,0000 0000 0000 0000 000000
2017-10-01 10:26:45,0.00,0.17,0.00,21.59,26.55,29.70,14.17,45.86,1021.22,2034.98,3416.00,3079.98,3472.98,599.80,601.39,32.64,0000 0000 0000 0000 000000
2017-10-01 10:31:47,0.00,0.17,0.00,21.56,26.55,29.70,14.26,46.24,1021.20,2034.98,3415.98,3079.99,3472.96,600.18,601.77,32.69,0000 0000 0000 0000 000000
2017-10-01 10:36:48,0.00,0.17,0.00,21.57,26.55,29.72,14.18,45.91,1021.27,2034.99,3415.98,3079.97,3472.94,600.10,602.01,32.74,0000 0000 0000 0000 000000
2017-10-01 10:41:50,0.00,0.17,0.00,21.61,26.55,29.69,14.03,45.59,1021.25,2034.98,3415.98,3079.97,3472.86,598.91,600.66,32.79,0000 0000 0000 0000 000000
2017-10-01 10:46:51,0.00,0.17,0.00,21.56,26.54,29.68,14.07,45.70,1021.11,2034.98,3415.98,3079.98,3472.85,599.83,601.44,32.84,0000 0000 0000 0000 000000
2017-10-01 10:51:52,0.00,0.18,0.00,21.52,26.53,29.69,14.07,45.83,1021.05,2034.99,3415.91,3079.97,3472.67,599.25,601.05,32.89,0000 0000 0000 0000 000000
2017-10-01 10:56:53,-0.00,0.18,0.00,21.57,26.52,29.67,14.10,45.81,1021.04,2034.99,3415.93,3079.96,3472.70,599.39,601.25,32.94,0000 0000 0000 0000 000000
2017-10-01 11:01:54,0.00,0.18,0.00,21.54,26.52,29.66,14.20,45.92,1021.06,2034.99,3415.67,3079.98,3472.73,600.16,601.69,32.99,0000 0000 0000 0000 000000
2017-10-01 11:06:56,0.00,0.18,0.00,21.53,26.52,29.66,14.02,45.47,1021.04,2034.99,3415.51,3079.97,3472.53,598.79,600.24,33.04,0000 0000 0000 0000 000000
2017-10-01 11:11:57,-0.00,0.18,0.00,21.59,26.52,29.64,14.14,45.95,1021.03,2034.99,3415.61,3079.97,3472.43,600.51,602.10,33.09,0000 0000 0000 0000 000000
2017-10-01 11:16:58,-0.00,0.18,0.00,21.53,26.50,29.64,14.02,45.62,1021.03,2034.99,3415.61,3079.96,3472.33,599.55,601.02,33.14,0000 0000 0000 0000 000000
2017-10-01 11:22:00,-0.00,0.18,0.00,21.54,26.50,29.68,14.21,45.98,1021.02,2034.99,3415.57,3079.99,3472.58,600.13,601.63,33.19,0000 0000 0000 0000 000000
2017-10-01 11:27:01,-0.00,0.18,0.00,21.53,26.50,29.64,14.16,46.02,1021.02,2034.99,3415.55,3079.98,3472.46,600.90,602.44,33.24,0000 0000 0000 0000 000000
2017-10-01 11:32:02,0.00,0.18,0.00,21.48,26.50,29.61,14.22,46.12,1021.02,2034.99,3415.47,3079.98,3472.38,601.13,602.47,33.29,0000 0000 0000 0000 000000
2017-10-01 11:37:03,-0.00,0.18,0.00,21.49,26.50,29.64,14.10,45.47,1021.02,2035.02,3415.07,3079.98,3472.88,600.21,602.01,33.34,0000 0000 0000 0000 000000
2017-10-01 11:42:04,-0.00,0.18,0.00,21.51,26.49,29.64,14.11,45.95,1021.01,2035.04,3415.00,3079.97,3472.88,600.10,601.54,33.39,0000 0000 0000 0000 000000
2017-10-01 11:47:06,0.00,0.18,0.00,21.50,26.48,29.61,14.24,46.28,1021.01,2035.10,3414.99,3079.89,3472.81,600.92,602.58,33.44,0000 0000 0000 0000 000000
2017-10-01 11:52:07,0.00,0.18,0.00,21.54,26.47,29.63,14.17,45.87,1021.01,2035.23,3414.99,3079.90,3472.68,600.55,602.06,33.50,0000 0000 0000 0000 000000
2017-10-01 11:57:08,0.00,0.18,0.00,21.53,26.47,29.61,14.07,45.58,1021.01,2035.08,3415.00,3079.89,3472.37,599.48,601.06,33.55,0000 0000 0000 0000 000000
2017-10-01 12:02:09,0.00,0.18,0.00,21.47,26.47,29.65,14.19,45.82,1021.01,2035.22,3415.00,3079.96,3472.70,600.91,602.56,33.60,0000 0000 0000 0000 000000
2017-10-01 12:07:11,0.00,0.18,0.00,21.50,26.47,29.67,14.10,45.77,1020.99,2035.20,3415.06,3079.99,3472.83,599.01,600.64,33.65,0000 0000 0000 0000 000000
2017-10-01 12:12:12,-0.00,0.18,0.00,21.47,26.45,29.62,14.19,45.96,1020.98,2035.11,3415.07,3079.99,3472.63,600.09,601.82,33.70,0000 0000 0000 0000 000000
2017-10-01 12:17:13,-0.00,0.18,0.00,21.45,26.45,29.62,14.22,45.80,1021.00,2035.10,3415.04,3079.99,3472.67,600.64,602.42,33.75,0000 0000 0000 0000 000000
2017-10-01 12:22:14,-0.00,0.18,0.00,21.49,26.45,29.65,14.19,46.16,1021.01,2035.08,3415.02,3079.98,3472.50,600.44,602.13,33.80,0000 0000 0000 0000 000000
2017-10-01 12:27:15,0.01,0.18,0.00,21.44,26.45,29.58,14.20,45.78,1021.01,2035.23,3415.07,3079.99,3472.85,600.40,602.15,33.85,0000 0000 0000 0000 000000
2017-10-01 12:32:17,0.05,0.18,0.00,21.44,26.44,29.60,14.15,45.37,1021.00,2035.62,3415.08,3079.99,3472.95,600.23,602.15,33.90,0000 0000 0000 0000 000000
2017-10-01 12:37:18,-0.00,0.18,0.00,21.52,26.42,29.58,14.14,45.83,1020.99,2035.78,3415.02,3079.99,3472.93,599.47,601.12,33.95,0000 0000 0000 0000 000000
2017-10-01 12:42:19,0.01,0.18,0.00,21.48,26.42,29.59,14.11,45.53,1020.95,2035.80,3415.02,3079.99,3472.92,599.60,601.34,34.00,0000 0000 0000 0000 000000
2017-10-01 12:47:21,-0.01,0.18,0.00,21.45,26.42,29.61,14.22,46.45,1020.81,2035.85,3415.04,3079.99,3472.92,601.46,603.04,34.05,0000 0000 0000 0000 000000
2017-10-01 12:52:22,-0.00,0.18,0.00,21.49,26.42,29.56,14.23,45.89,1020.71,2035.82,3415.08,3079.99,3472.88,600.59,602.08,34.10,0000 0000 0000 0000 000000
2017-10-01 12:57:23,0.00,0.18,0.00,21.47,26.42,29.56,14.05,45.58,1020.84,2035.69,3415.05,3079.99,3472.70,599.55,601.25,34.15,0000 0000 0000 0000 000000